Regional Weather Roundup
Issued by NWS Charleston, SC

Current Version | Previous Version | Graphics & Text | Print | Product List | Glossary On
Versions: 1 2 3 4 5 6 7 8 9 10 11 12 13 14 15 16 17 18 19 20 21 22 23 24 25 26 27 28 29 30 31 32 33 34 35 36 37 38 39 40 41 42 43 44 45 46 47 48 49 50
000
ASUS42 KCHS 261427
RWRCHS

REGIONAL WEATHER ROUNDUP
NATIONAL WEATHER SERVICE CHARLESTON SC
1000 AM EDT WED APR 26 2017

NOTE: "FAIR" INDICATES FEW OR NO CLOUDS BELOW 12,000 FEET WITH NO
SIGNIFICANT WEATHER AND/OR OBSTRUCTIONS TO VISIBILITY.

NOT ALL STATIONS ARE QUALITY CONTROLLED. USE DATA WITH CAUTION...
ESPECIALLY DEWPOINT OBSERVATIONS.

SCZ027-030-031-034>040-042>050-261500-
...SOUTHEAST SOUTH CAROLINA...

CITY           SKY/WX    TMP DP  RH WIND       PRES   REMARKS
N CHARLESTON   SUNNY     76  62  62 W7        29.85R
WATERFRONT PRK   N/A     74  66  75 W5        29.82R
JOHNS ISLAND   FAIR      79  63  57 W9        29.86R
PINOPOLIS        N/A     73  68  83 SW6       29.77R
MONCKS CORNER  FAIR      75  63  64 SW6       29.86R
SUMMERVILLE    FAIR      72  61  68 W5        29.87R
BEAUFORT MCAS  SUNNY     76  61  59 W8        29.86R
BEAUFORT ARPT  FAIR      75  59  57 NW8       29.86S
HILTON HEAD IS SUNNY     75  61  60 CALM      29.88R
WALTERBORO     SUNNY     73  61  64 W3        29.87S
ALLENDALE      FAIR      73  61  64 CALM      29.86R

...SOUTHERN MIDLANDS AND PEE DEE...

CITY           SKY/WX    TMP DP  RH WIND       PRES   REMARKS
GEORGETOWN     PTSUNNY   73  64  73 CALM      29.88R
KINGSTREE      FAIR      73  61  64 S5        29.86R
ORANGEBURG     SUNNY     71  62  73 SW6       29.85R
BARNWELL       FAIR      75  63  64 W6        29.87R
AIKEN          FAIR      72  61  68 SW3       29.90R
MANNING        FAIR      72  63  73 S23       29.86R
COLUMBIA       SUNNY     75  62  64 W5        29.84R
SUMTER         SUNNY     73  62  69 S7        29.83R
FLORENCE       SUNNY     69  61  75 VRB3      29.86R
MYRTLE BEACH   PTSUNNY   68  61  77 VRB6      29.87R
N MYRTLE BEACH CLOUDY    68  61  78 NW5       29.86R

$$

GAZ063-065-086>088-099>101-113>116-118-119-134>141-150-261500-
...SOUTHEAST GEORGIA...

CITY           SKY/WX    TMP DP  RH WIND       PRES   REMARKS
SAVANNAH ARPT  SUNNY     75  58  55 W7        29.86R
HUNTER AAF     SUNNY     75  64  69 W3        29.84R
FORT STEWART   SUNNY     73  59  62 W5        29.84R
STATESBORO     SUNNY     75  58  55 W7        29.87R
SYLVANIA       SUNNY    N/A N/A N/A NW6       29.88R
CLAXTON        FAIR      74  65  73 SW3       29.87R

...CSRA...CENTRAL AND FAR SOUTHEAST GEORGIA...

CITY           SKY/WX    TMP DP  RH WIND       PRES   REMARKS
THOMSON        SUNNY     74  59  59 N8        29.91R
AUGUSTA-BUSH   SUNNY     73  63  70 VRB3      29.85R
AUGUSTA-DANIEL SUNNY     74  58  57 VRB3      29.86R
SWAINSBORO     FAIR      73  61  64 W6        29.88S
VIDALIA        SUNNY     75  61  60 W6        29.87R
EASTMAN        FAIR      73  50  44 NW5       29.91R
HAZLEHURST     FAIR      73  63  71 NW5       29.87R
ALMA           SUNNY     72  60  66 VRB7      29.87R
WAYCROSS       SUNNY     75  66  74 NW3       29.89R
JESUP          FAIR      75  59  57 NW3       29.88R
BAXLEY         FAIR      73  63  68 W6        29.88R
BRUNSWICK      SUNNY     73  64  73 W3        29.89R
SAINT SIMONS   SUNNY     71  60  68 SW7       29.87R

$$

SCZ027-028-034-036>038-045-046-048>050-GAZ119-141-261500-
...LAKE AND SUPPLEMENTAL COASTAL OBSERVATIONS...

STATION/POSITION TIME  TEMP    WIND        PRES    WAVE   SWELL
                       AIR SEA DIR/SP/G            HT/PER HT/PER/DIR
                 (UTC) (F)     (DEG/KT/KT) (MB)    (FT/S) (FT/S/D)
WINYAH BAY       1330   70      60/  5     1010.0S
LAKE MURRAY      1420   71     180/  5/  6 1010.5
ACE BASIN NERRS  1330   72     230/  2     1011.0R
FORT PULASKI     1400   71 73  200/  3/  4 1011.6
SAPELO ISLAND    1400   70     260/  3     1012.0

$$

ANZ835-935-AMZ111-154-330-350-352-354-370-450-454-472-261500-
...C-MAN AND BUOY OBSERVATIONS...

STATION/POSITION TIME  TEMP    WIND        PRES    WAVE   SWELL
                       AIR SEA DIR/SP/G            HT/PER HT/PER/DIR
                 (UTC) (F)     (DEG/KT/KT) (MB)    (FT/S) (FT/S/D)
BUOY 41004       1410   72 73  230/ 10/ 14 1011.0
BUOY 41008       1350   70 71  230/  8/  8 1011.3R   3/10   3/ 90/10
FOLLY BEACH CMAN 1400   75     250/  7/  9 1011.7R
CAPERS NEARSHORE 1408   72 72  240/ 10/ 14 1010.8R
FRIPP NEARSHORE  1408   71 71  250/  6/ 10 1011.2R


STATION/POSITION TIME  TEMP    WIND        PRES    WAVE   SWELL
                       AIR SEA DIR/SP/G            HT/PER HT/PER/DIR
                 (UTC) (F)     (DEG/KT/KT) (MB)    (FT/S) (FT/S/D)
5E ST. MARYS GA  1400      73                N/A     2/10   2/110/11
FRYING PAN BUOY  1410   69 74  330/  4/  8 1011.0
BUOY 41025       1350   67 77  270/ 12/ 16 1009.3R   7/ 9   7/130/ 9
CAPE LOOKOUT NC  1400   65     290/ 11/ 13 1009.9R
BUOY 41002       1350   74 75  220/ 17/ 21 1011.7R   8/ 9   5/110/ 9
BUOY 41010       1410   76 76  160/ 16/ 19 1012.3
ST AUGUSTINE FL  1400   71 72  200/  6/  9 1013.1R


$$



USA.gov is the U.S. government's official web portal to all federal, state and local government web resources and services.